הכול
Damyns Hall Aerodrome Airport (Upminster, England) EGML מזג אוויר
There is no TAF data available at EGML. Showing TAF data for EGLC (8 mi מע').
LCY Terminal Area Forecast (no data for EGML)
| Date | Time (BST) | Flight Rules | Wind Dir. | Speed | Type | Height AGL (ft) | Visibility | Remarks | ||||||
|---|---|---|---|---|---|---|---|---|---|---|---|---|---|---|
| 06-ספט | 18:00 | VFR | 180° | 9 kt | Few | 2,000 | >= 6 miles | |||||||
| 06-ספט | 17:00 | VFR | 180° | 9 kt | Few | 2,000 | >= 6 miles | |||||||
| 06-ספט | 16:00 | VFR | 180° | 9 kt | Few | 2,000 | >= 6 miles | |||||||
| 06-ספט | 15:00 | VFR | 180° | 9 kt | Few | 2,000 | >= 6 miles | |||||||
| 06-ספט | 14:00 | VFR | 180° | 9 kt | Few | 2,000 | >= 6 miles | |||||||
| 06-ספט | 13:00 | VFR | 180° | 9 kt | Few | 2,000 | >= 6 miles | |||||||
| 06-ספט | 12:00 | VFR | 180° | 9 kt | Few | 2,000 | >= 6 miles | |||||||
| 06-ספט | 11:00 | VFR | 180° | 9 kt | Few | 2,000 | >= 6 miles | |||||||
| 06-ספט | 10:00 | VFR | 180° | 9 kt | Few | 2,000 | >= 6 miles | |||||||
There is no METAR data available at EGML. Showing METAR data for EGLC (8 mi מע').
Recent LCY METAR history (no data for EGML)
| Date | Time (BST) | Flight Rules | Wind Dir. | Speed | Type | Height AGL (ft) | Visibility | Temp (°C) | Temp (°F) | Dew Point (°C) | Dew Point (°F) | Rel. Humid. | Pressure | Density Altitude | Remarks |
|---|---|---|---|---|---|---|---|---|---|---|---|---|---|---|---|
| 06-ספט | 09:50 | VFR | 150° | 8 kt | 10000 meters | 20° | 68° | 13° | 55° | 64% | 1022 mb | 359 ft | |||
| 06-ספט | 09:20 | VFR | 150° | 7 kt | 10000 meters | 19° | 66° | 13° | 55° | 68% | 1023 mb | 210 ft | |||
| 06-ספט | 08:50 | VFR | 160° | 5 kt | 10000 meters | 18° | 64° | 12° | 53° | 68% | 1023 mb | 90 ft | |||
| 06-ספט | 08:20 | VFR | 140° | 5 kt | 10000 meters | 17° | 62° | 12° | 53° | 72% | 1023 mb | -30 ft | |||
| 06-ספט | 07:50 | VFR | 170° | 7 kt | 10000 meters | 17° | 62° | 12° | 53° | 72% | 1023 mb | -30 ft | |||
| 06-ספט | 07:20 | VFR | 170° | 6 kt | 10000 meters | 16° | 60° | 12° | 53° | 77% | 1023 mb | -150 ft | |||
| 06-ספט | 06:50 | VFR | 180° | 4 kt | 10000 meters | 16° | 60° | 12° | 53° | 77% | 1023 mb | -150 ft | |||
| 06-ספט | 06:20 | VFR | 200° | 3 kt | 10000 meters | 16° | 60° | 11° | 51° | 72% | 1023 mb | -150 ft | |||
| 06-ספט | 05:50 | VFR | Variable | 2 kt | 10000 meters | 15° | 59° | 11° | 51° | 77% | 1023 mb | -270 ft | |||
| 06-ספט | 05:20 | VFR | Variable | 1 kt | 10000 meters | 16° | 60° | 11° | 51° | 72% | 1024 mb | -180 ft | |||
| 06-ספט | 04:50 | VFR | 250° | 1 kt | 10000 meters | 16° | 60° | 10° | 50° | 68% | 1024 mb | -180 ft | |||
| 06-ספט | 04:20 | VFR | 200° | 3 kt | 10000 meters | 16° | 60° | 10° | 50° | 68% | 1024 mb | -180 ft | |||
| 06-ספט | 03:50 | VFR | 200° | 4 kt | 10000 meters | 16° | 60° | 10° | 50° | 68% | 1024 mb | -180 ft | |||
| 06-ספט | 03:20 | VFR | 210° | 5 kt | 10000 meters | 16° | 60° | 11° | 51° | 72% | 1025 mb | -209 ft | |||
| 06-ספט | 02:50 | VFR | 200° | 4 kt | 10000 meters | 16° | 60° | 11° | 51° | 72% | 1025 mb | -209 ft | |||
| 06-ספט | 02:20 | VFR | 200° | 3 kt | 10000 meters | 17° | 62° | 11° | 51° | 68% | 1025 mb | -89 ft | |||
| 06-ספט | 01:50 | VFR | 220° | 4 kt | 10000 meters | 17° | 62° | 11° | 51° | 68% | 1025 mb | -89 ft | |||
| 06-ספט | 01:20 | VFR | 200° | 4 kt | 10000 meters | 17° | 62° | 11° | 51° | 68% | 1025 mb | -89 ft | |||
| 06-ספט | 00:50 | VFR | 230° | 3 kt | 10000 meters | 17° | 62° | 11° | 51° | 68% | 1025 mb | -89 ft | |||
| 06-ספט | 00:20 | VFR | 240° | 4 kt | 10000 meters | 17° | 62° | 11° | 51° | 68% | 1025 mb | -89 ft | |||
| 05-ספט | 23:50 | VFR | 230° | 5 kt | 10000 meters | 18° | 64° | 11° | 51° | 64% | 1025 mb | 31 ft | |||
| 05-ספט | 23:20 | VFR | 240° | 7 kt | 10000 meters | 18° | 64° | 11° | 51° | 64% | 1025 mb | 31 ft | |||
| 05-ספט | 22:50 | VFR | 230° | 7 kt | 10000 meters | 18° | 64° | 11° | 51° | 64% | 1025 mb | 31 ft | |||
| 05-ספט | 22:20 | VFR | 220° | 4 kt | 10000 meters | 18° | 64° | 11° | 51° | 64% | 1025 mb | 31 ft |
כניסה לאתר
| אין תמיכה בדפדפן שלך. שדרג את הדפדפן שלך |
